Dewpoint
57 57 57 58 58 58 58 58 58 58 58 59 59 59 59 59 58 51 32 38 45 62 51 40 39 38 39 39 37 34 26 24 23 24 21 25 23 23 24 22 24 25 25 26 39
57 57 57 58 58 58 58 57 57 57 58 58 58 59 59 58 50 39 46 57 63 58 37 35 36 36 33 37 38 33 26 23 22 22 24 25 24 25 24 22 22 22 24 29 39
57 57 57 58 58 58 58 57 57 57 57 57 58 58 58 57 24 15 56 59 63 52 37 36 35 34 33 36 36 33 28 27 23 22 26 28 26 25 24 25 25 24 24 25 32
58 58 58 58 58 58 58 58 58 58 57 57 57 58 58 49 9 18 59 63 62 39 35 34 34 33 32 31 34 31 31 28 30 29 29 27 28 26 23 26 28 26 25 25 28
59 59 59 59 59 59 58 58 58 58 58 57 57 57 48 21 19 50 63 63 42 38 34 32 32 32 29 30 31 32 31 31 32 30 30 30 30 29 26 26 26 26 26 25 25
59 59 59 59 59 59 58 58 58 58 58 58 57 57 32 19 29 55 55 46 41 36 34 32 30 31 29 29 29 29 30 28 28 27 28 27 25 27 26 27 24 24 24 24 25
59 59 59 59 59 58 58 58 58 58 58 58 56 54 32 17 38 50 46 42 40 34 33 33 30 29 28 26 27 28 25 23 23 24 25 28 25 25 25 26 24 22 21 21 22
59 58 58 58 58 58 58 58 58 57 57 57 56 48 9 35 42 40 35 33 37 34 31 30 31 29 27 28 23 22 23 19 18 24 23 23 15 17 17 18 17 17 17 20 21
58 58 58 58 58 58 58 58 57 56 55 55 47 25 11 43 34 36 35 31 32 31 32 30 29 27 27 22 19 21 16 16 18 21 21 23 20 20 21 20 20 20 20 20 20
58 58 58 58 58 58 57 54 55 55 55 55 43 21 20 21 36 35 34 32 30 31 30 29 27 24 23 19 13 15 16 17 16 15 19 20 21 21 22 21 20 20 20 21 22
58 58 58 58 58 58 49 40 32 27 38 24 26 19 17 34 38 34 35 31 29 27 25 28 23 21 20 21 18 15 14 14 15 17 19 17 17 18 19 20 19 19 19 19 21
59 59 58 58 58 54 43 38 38 39 28 31 35 34 33 33 28 34 34 29 28 25 26 25 23 23 22 22 21 20 19 18 19 20 19 20 18 18 19 19 19 19 19 21 21
59 59 59 58 56 48 42 40 47 45 31 30 31 31 28 30 27 27 32 30 27 25 24 22 23 26 24 22 20 21 19 18 18 20 20 18 16 19 17 21 21 21 22 21 21
59 59 58 57 51 47 44 45 47 42 32 32 24 26 31 28 22 30 33 29 27 25 25 24 26 23 24 21 21 19 21 21 20 18 15 17 12 16 15 15 17 17 18 17 19
57 58 58 56 51 48 45 47 46 33 32 32 23 32 33 23 24 26 29 29 25 26 22 20 23 23 23 22 22 21 21 20 20 20 18 18 14 14 15 14 15 15 18 17 19
53 56 56 53 51 49 47 46 36 35 31 33 22 24 25 27 26 27 28 26 26 25 25 24 24 22 20 22 22 22 21 20 22 19 16 17 14 15 12 13 13 15 17 18 20
50 51 56 53 51 48 46 48 39 34 37 32 22 22 20 16 24 25 26 25 20 20 22 21 21 23 22 20 22 22 19 16 15 16 15 18 15 15 15 16 16 15 16 21 23
47 51 55 54 50 48 50 44 34 34 35 36 34 33 30 27 25 25 22 20 24 20 20 24 26 21 22 21 20 21 19 20 16 17 18 20 19 22 20 21 20 19 21 27 26
47 52 53 55 50 52 48 37 33 33 37 36 37 34 32 32 30 26 23 24 26 22 23 22 21 20 22 21 20 19 18 23 22 24 22 18 20 22 25 18 25 28 27 27 27
44 48 49 54 51 51 44 37 36 38 40 40 35 36 32 32 32 30 29 30 26 26 26 27 29 24 24 24 21 20 21 19 21 16 16 17 16 18 21 27 28 27 25 21 21
45 42 47 52 52 46 36 37 38 41 41 38 38 36 36 35 32 33 37 36 31 28 27 23 27 26 28 23 19 21 19 19 20 22 17 17 20 24 28 28 26 19 14 14 15
43 33 50 52 43 43 37 38 40 39 40 40 40 39 37 36 35 35 34 36 34 26 24 26 31 29 29 29 26 25 25 26 28 25 22 23 25 27 26 25 20 8 8 11 14
38 38 49 50 35 37 38 38 39 38 38 39 37 37 37 35 33 34 35 36 37 37 35 36 32 26 25 24 31 30 30 28 31 32 27 24 25 27 22 21 21 19 13 13 13
35 29 38 45 41 38 34 33 33 37 38 39 37 38 36 34 36 34 34 36 35 34 38 37 34 31 23 21 26 27 28 31 31 27 24 26 29 28 21 19 18 21 22 17 16
31 29 34 31 32 34 35 33 30 31 33 34 32 34 33 31 32 32 35 36 35 34 31 33 30 32 32 31 29 28 27 26 25 25 23 23 23 25 19 19 18 15 23 18 12
28 26 30 30 30 29 32 29 29 30 31 29 28 28 30 29 31 31 34 33 31 30 29 31 28 26 20 25 23 21 21 21 20 20 22 22 24 19 20 19 14 5 22 15 10
31 32 30 25 26 25 25 28 27 27 29 25 26 27 27 28 29 29 30 31 31 29 28 29 28 22 19 21 19 17 17 16 15 16 17 15 15 19 18 16 11 9 23 13 12
Lifted_Index
10 10 10 10 10 10 10 10 10 10 9 9 9 9 9 9 10 10 10 10 9 9 9 9 8 8 8 8 8 7 5 4 4 5 5 6 6 6 7 6 5 6 6 7 8
9 9 9 9 9 9 9 10 10 10 10 9 9 9 9 9 10 10 10 9 9 9 9 9 8 8 8 8 8 7 5 4 5 5 6 6 6 6 6 5 5 5 6 7 7
9 9 9 9 9 9 9 9 10 10 10 10 10 9 10 9 9 9 9 8 8 9 9 9 8 8 8 7 7 6 5 5 6 6 6 6 6 6 5 4 4 4 5 6 6
9 9 9 9 9 9 9 9 9 10 10 10 10 10 10 9 8 8 7 6 7 9 10 9 9 8 7 7 7 6 6 6 7 7 7 6 5 5 5 4 4 5 6 6 6
8 9 9 9 9 9 9 9 9 9 10 10 10 10 10 9 8 8 6 6 8 9 9 9 9 8 7 7 7 7 7 7 7 7 7 6 5 5 5 5 5 6 6 6 6
8 8 8 8 9 9 9 9 9 9 9 9 10 10 9 8 8 8 7 8 8 9 9 9 9 8 8 8 8 7 7 7 7 7 7 6 5 5 5 6 6 6 6 6 6
7 7 8 8 8 8 9 9 9 9 9 9 10 10 9 8 9 9 9 9 9 9 9 9 9 9 8 8 8 8 6 6 6 6 7 6 5 5 6 6 6 6 6 6 6
6 7 7 7 8 8 8 8 9 9 9 9 9 9 8 8 9 9 9 9 9 9 9 9 9 9 8 8 7 7 6 5 5 6 7 7 6 5 7 7 7 6 6 6 6
5 5 6 6 6 6 7 8 8 9 10 10 9 8 7 7 7 8 9 9 9 9 9 9 9 8 7 6 6 5 5 5 5 6 7 7 7 7 8 8 7 6 6 5 5
4 4 4 5 5 5 5 6 7 8 9 9 9 8 7 6 7 7 8 9 9 8 8 8 8 7 6 5 5 5 5 5 5 6 7 7 7 8 8 8 7 6 6 5 5
3 3 4 4 4 4 4 5 6 6 7 7 7 7 6 7 7 7 8 8 7 7 7 7 6 5 5 5 5 5 5 5 6 7 7 7 7 8 8 7 6 6 5 6 6
3 3 3 3 4 4 4 4 5 6 6 5 5 5 5 5 5 6 7 6 6 6 6 6 5 5 5 5 5 5 5 6 6 8 8 8 8 8 8 7 6 6 6 6 7
3 3 3 3 3 4 4 4 5 6 5 5 5 5 5 4 4 5 6 6 5 4 5 5 5 5 5 4 4 5 5 6 6 7 8 7 7 7 8 8 7 7 7 7 7
3 3 3 3 3 3 3 4 5 5 5 5 5 6 6 5 5 6 7 6 4 4 4 4 4 4 4 4 4 4 5 5 5 6 6 6 6 7 8 8 7 7 7 7 7
3 3 3 3 3 3 3 4 4 4 4 4 5 6 6 6 5 6 6 6 4 3 3 3 3 3 3 3 4 4 4 4 4 4 5 5 5 6 8 7 6 6 5 5 6
4 4 4 3 3 3 3 3 3 3 3 3 4 5 5 4 4 4 4 5 4 3 3 3 3 3 3 3 3 3 3 3 3 3 3 4 4 6 7 7 6 5 4 4 5
6 5 4 3 3 3 3 3 3 3 3 3 3 3 2 2 2 2 2 2 3 2 3 3 3 3 2 2 2 2 2 2 2 2 2 3 4 5 6 6 5 5 5 5 6
8 7 5 3 3 2 3 3 3 4 3 3 2 2 2 2 1 1 1 1 1 1 1 2 3 3 2 2 2 3 3 2 1 1 2 3 4 5 6 6 5 6 6 6 6
9 8 6 4 3 2 3 4 4 4 3 2 2 2 2 2 1 1 1 1 1 1 1 1 2 2 3 3 3 3 3 2 1 1 2 3 4 5 6 6 6 6 6 6 6
9 8 6 4 2 2 3 4 4 4 3 2 2 2 2 2 2 1 1 2 1 1 0 0 1 2 3 3 3 3 2 2 2 1 1 2 3 4 5 5 5 5 6 6 6
8 8 6 3 2 2 3 4 4 3 2 2 2 2 2 2 2 1 2 2 2 1 1 1 1 2 3 3 3 2 2 2 2 1 1 1 1 2 3 4 5 5 6 6 7
8 7 5 3 3 3 4 3 3 3 2 2 2 2 2 2 1 1 1 1 1 1 1 1 1 2 3 3 3 2 2 2 1 1 1 1 1 1 1 2 3 4 5 6 6
8 7 5 4 4 4 4 3 3 3 3 2 1 1 2 2 1 1 1 1 1 1 1 1 1 1 2 3 3 2 2 2 1 1 1 1 0 0 0 1 2 3 4 5 6
9 8 7 5 5 4 4 4 4 3 3 2 2 2 2 2 2 2 2 1 1 1 1 1 1 1 2 2 2 2 2 2 2 1 1 1 1 1 1 2 3 4 5 6 7
9 9 8 7 6 5 5 5 5 4 3 3 3 2 2 2 2 2 2 2 2 2 2 1 1 1 1 2 2 2 2 2 2 2 1 1 1 2 2 3 4 5 6 6 7
10 9 9 8 7 6 6 5 5 5 4 4 4 4 3 3 3 3 3 3 3 3 3 2 2 2 2 2 2 2 2 3 2 2 2 2 2 3 4 4 5 6 6 6 6
11 10 9 8 7 6 6 6 5 5 5 5 5 5 4 4 4 3 3 3 4 4 4 3 3 2 2 3 3 3 3 3 3 3 3 2 3 3 4 4 5 6 6 7 7